Location: Palomar Mountain Lodge
(33.3110°N, 116.8495°W)
Time: 05:39:09
(UTC-07:00)

RESURS DK-1 - Pass Details

Date: 19 May 2017
Orbit: 555 x 565 km, 69.9° (Epoch: 22 July)

Event Time Altitude Azimuth Distance (km) Brightness Sun altitude
Rises 20:24:41 0° 178° (S) 2,712 5.5 -8.4°
Reaches altitude 10° 20:27:03 10° 167° (SSE) 1,822 4.6 -8.8°
Maximum altitude 20:30:36 30° 106° (ESE) 1,012 3.1 -9.5°
Drops below altitude 10° 20:34:11 10° 45° (NE) 1,835 4.9 -10.1°
Sets 20:36:35 0° 34° (NE) 2,735 5.9 -10.5°
